Location: ?ernice
(48.8383°N, 14.3803°E)
Time: 16:15:55
(UTC+00:00)

SL-16 R/B - Pass Details

Date: 23 May 2024
Orbit: 842 x 845 km, 71.0° (Epoch: 12 June)

Event Time Altitude Azimuth Distance (km) Brightness Sun altitude
Rises 01:35:56 0° 326° (NW) 3,416 5.6 -12.2°
Reaches altitude 10° 01:38:34 10° 318° (NW) 2,476 4.8 -12.0°
Maximum altitude 01:43:40 36° 254° (WSW) 1,323 2.8 -11.5°
Drops below altitude 10° 01:48:45 10° 189° (S) 2,460 4.1 -10.9°
Enters shadow 01:48:58 - 188° (S) 2,531 4.2 -10.9°
